Location: Invercargill
(46.4000°S, 168.3500°E)
Time: 18:44:38
(UTC+12:00)

COSMOS 2428 - Pass Details

Date: 14 May 2021
Orbit: 844 x 859 km, 70.9° (Epoch: 14 June)

Event Time Altitude Azimuth Distance (km) Brightness Sun altitude
Rises 19:22:45 0° 309° (NW) 3,421 6.8 -20.2°
Reaches altitude 10° 19:25:23 10° 300° (WNW) 2,489 6.1 -20.6°
Maximum altitude 19:30:40 37° 233° (SW) 1,309 4.0 -21.5°
Drops below altitude 10° 19:35:59 10° 166° (SSE) 2,504 5.0 -22.5°
Enters shadow 19:36:23 - 164° (SSE) 2,644 5.1 -22.5°
